Regional Weather Roundup
Issued by NWS

Home | Current Version | Previous Version | Graphics & Text | Print | Product List | Glossary On
Versions: 1 2 3 4 5 6 7 8 9 10 11 12 13 14 15 16 17 18 19 20 21 22 23 24 25 26 27 28 29 30 31 32 33 34 35 36 37 38 39 40 41 42 43 44 45 46 47 48 49 50
000
ASUS43 KOAX 280010
RWRNE

WEATHER ROUNDUP FOR NEBRASKA
NATIONAL WEATHER SERVICE OMAHA NE
700 PM CDT MON JUL 27 2015

NOTES: SATELLITE DATA IS BEING USED TO AUGMENT CLOUD COVER ABOVE
       12000 FEET.
       "FAIR" INDICATES FEW OR NO CLOUDS BELOW 12,000 FEET WITH NO
       SIGNIFICANT WEATHER AND/OR OBSTRUCTIONS TO VISIBILITY.

  * THESE STATIONS DO NOT REPORT WEATHER SUCH AS RAIN...SNOW OR FOG.

NEZ001>004-019>022-054>056-280100-
NEBRASKA PANHANDLE

CITY           SKY/WX    TMP DP  RH WIND       PRES   REMARKS
SCOTTSBLUFF    MOSUNNY   86  59  39 VRB3      29.71S THUNDER
6HR MIN TEMP:  85; 6HR MAX TEMP:  95; 6HR PCP: TRACE;

ALLIANCE       MOSUNNY   91  62  37 SE15G28   29.69F HX  91
6HR MIN TEMP:  84; 6HR MAX TEMP:  92;

CHADRON        SUNNY     92  62  36 S18G30    29.61F HX  92
6HR MIN TEMP:  90; 6HR MAX TEMP:  96;

KIMBALL        SUNNY     92  45  20 S20       29.77F
SIDNEY         MOSUNNY   95  50  21 S17       29.75F HX  92
6HR MIN TEMP:  84; 6HR MAX TEMP:  96;

$$

NEZ057>060-069>072-079>082-280100-
SOUTHWEST NEBRASKA

CITY           SKY/WX    TMP DP  RH WIND       PRES   REMARKS
NORTH PLATTE   MOSUNNY   88  69  53 S16G24    29.73F HX  92
6HR MIN TEMP:  83; 6HR MAX TEMP:  91;

IMPERIAL       PTSUNNY   93  65  39 S23G32    29.74F HX  95
6HR MIN TEMP:  87; 6HR MAX TEMP:  94;

LEXINGTON      SUNNY     91  73  56 SE17      29.76F HX  99
MCCOOK         MOSUNNY   94  70  45 S16G29    29.74F HX 100
6HR MIN TEMP:  87; 6HR MAX TEMP:  95;

OGALLALA       MOSUNNY   91  68  48 S16G29    29.72F HX  94
$$

NEZ005>010-023>029-035>040-094-280100-
NORTH CENTRAL NEBRASKA

CITY           SKY/WX    TMP DP  RH WIND       PRES   REMARKS
VALENTINE      SUNNY     91  68  46 S22G29    29.69F HX  95
6HR MIN TEMP:  87; 6HR MAX TEMP:  93;

AINSWORTH      SUNNY     89  70  52 S23G30    29.72F HX  94
BROKEN BOW     SUNNY     89  72  56 S17G32    29.76F HX  96
6HR MIN TEMP:  86; 6HR MAX TEMP:  91;

O`NEILL        PTSUNNY   88  72  57 S21G26    29.76F HX  95
ORD            MOSUNNY   88  72  58 SE18G24   29.75F HX  94
6HR MIN TEMP:  86; 6HR MAX TEMP:  90;

THEDFORD       SUNNY     91  70  50 S22G31    29.74F HX  96
$$

NEZ041-046>049-061>064-073>077-083>087-280100-
SOUTH CENTRAL NEBRASKA

CITY           SKY/WX    TMP DP  RH WIND       PRES   REMARKS
GRAND ISLAND   SUNNY     86  73  65 SE16      29.80F HX  93
6HR MIN TEMP:  83; 6HR MAX TEMP:  89;

AURORA         SUNNY     85  73  67 SE12      29.80F HX  92
HASTINGS       SUNNY     88  74  63 SE15      29.79F HX  96
6HR MIN TEMP:  84; 6HR MAX TEMP:  90;

HEBRON         SUNNY     89  74  60 SE8       29.80F HX  98
HOLDREGE       PTSUNNY   87  70  55 SE10      29.78F HX  92
KEARNEY *      MOSUNNY   88  73  62 SE15      29.78F HX  96
YORK           SUNNY     86  73  66 S9G16     29.81F HX  93
$$

NEZ011>018-030>034-042>045-280100-
NORTHEAST NEBRASKA

CITY           SKY/WX    TMP DP  RH WIND       PRES   REMARKS
NORFOLK        SUNNY     87  72  60 SE16      29.78F HX  93
6HR MIN TEMP:  85; 6HR MAX TEMP:  90;

ALBION         SUNNY     86  71  60 S16G23    29.79F HX  91
BLAIR          MOSUNNY   84  75  73 SE13G20   29.84F HX  91
COLUMBUS *     SUNNY     88  73  62 SE10G17   29.79F HX  96
FREMONT        SUNNY     87  72  61 SE15      29.82F HX  94
TEKAMAH        SUNNY     84  76  76 E14       29.82F HX  93
6HR MIN TEMP:  81; 6HR MAX TEMP:  89;

WAYNE          SUNNY     86  75  70 SE13      29.81F HX  94
$$

NEZ050>053-065>068-078-088>093-280100-
SOUTHEAST NEBRASKA

CITY           SKY/WX    TMP DP  RH WIND       PRES   REMARKS
LINCOLN        SUNNY     90  75  61 S14       29.81F HX 100
6HR MIN TEMP:  85; 6HR MAX TEMP:  91;

OMAHA EPPLEY   PTSUNNY   85  74  69 SE20      29.85S HX  92
6HR MIN TEMP:  83; 6HR MAX TEMP:  91;

BEATRICE       MOSUNNY   89  77  69 SE8       29.82F HX 101
FALLS CITY     MOSUNNY   87  80  79 SE7       29.83F HX 103
6HR MIN TEMP:  82; 6HR MAX TEMP:  90; 6HR PCP: TRACE;

NEBRASKA CITY  MOSUNNY   86  76  71 SE8       29.85S HX  96
PLATTSMOUTH    CLOUDY    85  78  79 E9        29.85F HX  95
$$

NEZ044-045-051>053-067-280100-
OMAHA AREA

CITY           SKY/WX    TMP DP  RH WIND       PRES   REMARKS
OMAHA EPPLEY   PTSUNNY   85  74  69 SE20      29.85S HX  92
6HR MIN TEMP:  83; 6HR MAX TEMP:  91;

BLAIR          MOSUNNY   84  75  73 SE13G20   29.84F HX  91
FREMONT        SUNNY     87  72  61 SE15      29.82F HX  94
MILLARD        MOSUNNY   87  76  69 SE15      29.84R HX  97
OFFUTT AFB     PTSUNNY   84  76  78 E15       29.84S HX  93
PLATTSMOUTH    CLOUDY    85  78  79 E9        29.85F HX  95
WAHOO          FAIR      86  76  71 SE15      29.82F HX  97
$$


USA.gov is the U.S. government's official web portal to all federal, state and local government web resources and services.